Weather reports worldwide

Advertisment
Vlissingen, Netherlands (6310): temperature & dewpoint: 20.09.2020 13:00:00 - 26.09.2020 13:00:00 (CEST)Vlissingen, Netherlands (6310): temperature 5cm: 20.09.2020 13:00:00 - 26.09.2020 13:00:00 (CEST)Vlissingen, Netherlands (6310): wind speed & gusts: 20.09.2020 13:00:00 - 26.09.2020 13:00:00 (CEST)Vlissingen, Netherlands (6310): wind direction: 20.09.2020 13:00:00 - 26.09.2020 13:00:00 (CEST)Vlissingen, Netherlands (6310): reduced air pressure: 20.09.2020 13:00:00 - 26.09.2020 13:00:00 (CEST)Vlissingen, Netherlands (6310): visibility: 20.09.2020 13:00:00 - 26.09.2020 13:00:00 (CEST)Vlissingen, Netherlands (6310): precipitation: 20.09.2020 13:00:00 - 26.09.2020 13:00:00 (CEST)
Date & Time tt [°C] td [°C] tt 5cm [°C] ff [km/h] ff [kn] fx [km/h] fx [kn] dd ppp [hPa] vv [km] rr [mm]
26.09.2020 13:00:00 13,0 11,0 12,9 39 21 - - NW 1001,2 10 -
26.09.2020 12:00:00 12,5 11,0 11,9 41 22 61 33 NW 1000,7 6 1,7
26.09.2020 11:00:00 11,9 10,4 11,5 37 20 58 31 NW 1000,7 10 4,0
26.09.2020 10:00:00 9,8 9,2 9,5 22 12 36 19 NW 1000,8 4,1 5,6
26.09.2020 09:00:00 10,1 9,1 9,8 18 10 47 25 N 1000,4 4,4 8,6
26.09.2020 08:00:00 12,5 10,0 11,8 36 19 61 33 NW 999,5 13 1,4
26.09.2020 07:00:00 10,6 8,3 10,2 44 24 68 37 NNW 999,5 9 4,0
26.09.2020 06:00:00 10,7 9,1 10,2 35 19 61 33 NNW 999,0 4,8 3,9
26.09.2020 05:00:00 10,7 9,0 10,3 44 24 76 41 NW 998,3 7 3,2
26.09.2020 04:00:00 11,3 9,6 9,7 41 22 65 35 NW 997,5 2,8 6,8
26.09.2020 03:00:00 12,2 10,3 11,5 47 25 79 43 NW 996,8 4,7 2,5
26.09.2020 02:00:00 12,4 10,3 11,8 50 27 79 43 WNW 995,9 5 1,6
26.09.2020 01:00:00 12,0 10,5 11,5 61 33 94 51 WNW 995,1 3,5 2,1
26.09.2020 00:00:00 10,9 10,0 11,3 65 35 97 53 WNW 994,7 3,5 0,7
25.09.2020 23:00:00 11,1 8,8 10,6 55 30 94 51 WNW 995,6 5 0,4
25.09.2020 22:00:00 12,1 8,8 11,1 55 30 90 49 WNW 996,0 8 0,0
25.09.2020 21:00:00 12,3 8,8 11,1 48 26 90 49 WNW 995,7 4,6 2,3
25.09.2020 20:00:00 10,9 10,2 11,2 65 35 94 51 WNW 994,4 5 1,0
25.09.2020 19:00:00 11,1 9,0 10,8 70 38 97 53 W 994,0 6 0,4
25.09.2020 18:00:00 11,7 9,4 10,6 65 35 90 49 W 994,8 3,4 0,9
25.09.2020 17:00:00 12,0 8,5 11,2 65 35 94 51 WNW 994,4 5 0,4
25.09.2020 16:00:00 11,4 8,4 10,9 52 28 83 45 W 994,6 9 0,3
25.09.2020 15:00:00 12,4 7,8 11,8 54 29 76 41 W 994,8 9 0,1
25.09.2020 14:00:00 12,6 7,7 11,6 47 25 65 35 W 994,7 19 0,0
25.09.2020 13:00:00 12,5 7,3 12,4 34 18 54 29 W 994,9 10 0,0
25.09.2020 12:00:00 11,4 7,3 10,8 29 16 54 29 W 994,7 6 1,1
25.09.2020 11:00:00 11,5 9,6 11,0 34 18 43 23 SW 994,7 9 0,1
25.09.2020 10:00:00 11,7 8,9 11,7 35 19 43 23 SSW 994,2 10 0,0
25.09.2020 09:00:00 10,4 7,9 10,3 32 18 43 23 SSW 994,0 15 0,0
25.09.2020 08:00:00 10,1 7,9 9,2 35 19 43 23 S 994,0 10 0,0
25.09.2020 07:00:00 9,7 7,4 9,1 35 19 43 23 SSW 994,1 10 0,0
25.09.2020 06:00:00 10,3 7,8 9,4 37 20 50 27 SSW 993,7 10 0,0
25.09.2020 05:00:00 10,4 8,2 9,7 39 21 47 25 SSW 993,5 10 0,0
25.09.2020 04:00:00 11,0 8,6 10,1 39 21 47 25 SSW 993,8 10 0,0
25.09.2020 03:00:00 11,2 9,0 10,5 32 18 43 23 S 993,9 40 0,0
25.09.2020 02:00:00 11,0 8,2 10,5 36 19 50 27 SW 994,6 32 0,0
25.09.2020 01:00:00 12,0 9,4 11,3 37 20 47 25 SW 994,0 10 0,0
25.09.2020 00:00:00 12,8 9,3 12,1 29 16 40 21 SSW 994,4 10 0,0
24.09.2020 23:00:00 14,2 11,0 13,9 40 21 47 25 S 994,8 29 0,0
24.09.2020 22:00:00 14,6 11,4 14,1 31 17 40 21 SSE 994,5 10 0,0
24.09.2020 21:00:00 15,4 12,3 14,6 31 17 40 21 SSE 995,2 10 0,0
24.09.2020 20:00:00 15,9 12,1 15,5 34 18 40 21 SSE 995,7 10 0,0
24.09.2020 19:00:00 16,2 12,3 15,9 29 16 32 18 SSE 996,6 28 0,0
24.09.2020 18:00:00 16,2 12,2 15,9 29 16 40 21 S 997,6 10 0,0
24.09.2020 17:00:00 16,1 11,9 17,4 28 15 36 19 S 998,8 10 0,0
24.09.2020 16:00:00 15,8 11,0 16,9 32 18 40 21 S 999,5 22 0,0
24.09.2020 15:00:00 15,5 11,7 15,9 41 22 50 27 SSW 999,8 10 0,0
24.09.2020 14:00:00 15,2 11,7 14,6 36 19 50 27 SSW 1000,2 13 0,3
24.09.2020 13:00:00 16,0 10,0 16,6 48 26 65 35 SSW 1000,1 10 0,0
24.09.2020 12:00:00 15,7 10,2 16,5 42 23 54 29 S 1000,4 10 0,0
24.09.2020 11:00:00 14,5 9,5 15,4 41 22 54 29 S 1000,8 10 0,0
24.09.2020 10:00:00 13,8 10,5 14,0 36 19 47 25 S 1001,3 21 0,0
24.09.2020 09:00:00 13,0 10,8 12,6 39 21 47 25 S 1001,5 10 0,0
24.09.2020 08:00:00 12,4 10,7 11,7 34 18 43 23 S 1001,5 10 0,0
24.09.2020 07:00:00 12,4 8,6 11,3 25 14 32 18 SW 1001,3 16 0,0
24.09.2020 06:00:00 12,6 8,6 11,6 39 21 47 25 SW 1001,3 10 0,0
24.09.2020 05:00:00 13,1 9,0 12,4 34 18 68 37 SW 1000,7 10 0,0
24.09.2020 04:00:00 14,4 8,7 13,2 55 30 76 41 WSW 999,7 10 0,0
24.09.2020 03:00:00 15,5 9,0 14,4 61 33 76 41 WSW 998,7 15 0,0
24.09.2020 02:00:00 14,8 10,5 13,5 50 27 68 37 SW 998,3 17 0,0
24.09.2020 01:00:00 15,2 11,9 14,5 48 26 58 31 SW 998,1 10 0,8
24.09.2020 00:00:00 15,8 15,0 15,8 26 14 58 31 SSW 997,8 4,5 3,6
23.09.2020 23:00:00 16,3 14,8 15,4 24 13 32 18 SW 998,2 10 0,4
23.09.2020 22:00:00 17,3 15,7 16,7 29 16 40 21 S 998,6 9 0,5
23.09.2020 21:00:00 17,3 15,6 16,6 21 11 29 16 S 999,1 10 1,5
23.09.2020 20:00:00 17,6 15,1 16,9 31 17 47 25 S 1000,0 10 0,3
23.09.2020 19:00:00 18,8 15,9 18,3 13 7 14 8 S 999,9 10 0,0
23.09.2020 18:00:00 18,9 15,4 18,6 16 9 22 12 SSW 1000,8 10 0,0
23.09.2020 17:00:00 18,0 16,2 18,2 15 8 22 12 SSW 1001,8 10 0,0
23.09.2020 16:00:00 17,4 16,3 17,4 22 12 29 16 SW 1002,5 7 0,5
23.09.2020 15:00:00 16,4 15,4 16,1 35 19 50 27 WSW 1003,0 6 4,3
23.09.2020 14:00:00 20,0 14,6 20,9 31 17 40 21 SSW 1002,8 10 0,0
23.09.2020 13:00:00 19,7 14,7 20,7 32 18 40 21 SSW 1003,1 25 0,0
23.09.2020 12:00:00 19,5 14,5 19,7 34 18 43 23 SSW 1003,5 10 0,0
23.09.2020 11:00:00 18,7 14,9 19,1 29 16 40 21 S 1003,7 10 0,0
23.09.2020 10:00:00 17,4 14,9 17,8 26 14 32 18 S 1003,9 8 0,0
23.09.2020 09:00:00 16,1 14,4 15,7 22 12 29 16 S 1004,1 6 0,0
23.09.2020 08:00:00 15,3 13,9 15,0 21 11 25 14 S 1004,3 4,9 0,0
23.09.2020 07:00:00 15,6 14,4 15,3 21 11 25 14 S 1004,4 4,6 0,0
23.09.2020 06:00:00 15,6 14,5 14,7 24 13 29 16 SSW 1004,9 3,9 0,0
23.09.2020 05:00:00 15,7 14,4 14,9 28 15 36 19 SSW 1005,0 4,8 0,0
23.09.2020 04:00:00 15,6 14,2 14,9 26 14 29 16 SSW 1005,3 4,9 0,0
23.09.2020 03:00:00 15,7 14,2 14,9 22 12 29 16 SSW 1005,5 5 0,0
23.09.2020 02:00:00 16,0 14,3 14,9 15 8 22 12 SSW 1005,9 5 0,0
23.09.2020 01:00:00 16,3 14,6 15,5 18 10 22 12 SW 1006,5 7 0,0
23.09.2020 00:00:00 17,0 14,8 16,1 21 11 29 16 WSW 1006,8 9 0,0
22.09.2020 23:00:00 17,7 14,3 16,3 13 7 18 10 SW 1007,1 10 0,0
22.09.2020 22:00:00 18,1 14,4 16,7 11 6 14 8 WSW 1007,1 10 0,0
22.09.2020 21:00:00 17,8 10,0 15,6 11 6 14 8 W 1007,2 10 0,0
22.09.2020 20:00:00 18,8 13,0 15,8 2 1 4 2 S 1007,2 10 0,0
22.09.2020 19:00:00 20,3 9,2 19,9 4 2 7 4 - 1007,4 10 0,0
22.09.2020 18:00:00 21,6 9,5 22,4 7 4 11 6 NW 1007,9 30 0,0
22.09.2020 17:00:00 21,3 9,6 23,5 11 6 14 8 WNW 1008,6 10 0,0
22.09.2020 16:00:00 21,5 12,2 24,4 11 6 14 8 W 1009,3 10 0,0
22.09.2020 15:00:00 21,9 10,8 25,2 9 5 11 6 WSW 1009,9 10 0,0
22.09.2020 14:00:00 20,3 13,6 24,2 8 4 7 4 WSW 1010,5 10 0,0
22.09.2020 13:00:00 19,4 13,1 22,5 8 4 11 6 WSW 1011,2 10 0,0
22.09.2020 12:00:00 18,5 15,5 21,3 5 3 7 4 SSW 1011,7 9 0,0
22.09.2020 11:00:00 17,4 15,4 18,7 5 3 7 4 SSW 1012,0 7 0,0
22.09.2020 10:00:00 16,0 14,8 16,4 4 2 7 4 S 1012,2 5 0,0
22.09.2020 09:00:00 15,4 14,4 15,4 7 4 7 4 S 1012,1 6 0,0
22.09.2020 08:00:00 14,6 14,1 12,2 5 3 7 4 NNW 1012,3 4,3 0,0
22.09.2020 07:00:00 14,1 13,7 10,8 5 3 7 4 N 1012,4 1,8 0,0
22.09.2020 06:00:00 13,8 13,4 11,4 9 5 11 6 NNW 1012,4 2,3 0,0
22.09.2020 05:00:00 14,8 14,1 13,1 9 5 11 6 NNW 1012,8 4,7 0,0
22.09.2020 04:00:00 14,9 14,3 12,5 8 4 11 6 NNW 1013,2 2,6 0,0
22.09.2020 03:00:00 15,0 14,2 12,4 5 3 11 6 N 1013,6 4,5 0,0
22.09.2020 02:00:00 15,2 14,2 14,1 11 6 14 8 NNW 1014,2 6 0,0
22.09.2020 01:00:00 15,7 14,1 14,7 11 6 14 8 NNW 1014,6 10 0,0
22.09.2020 00:00:00 15,9 14,2 15,1 15 8 18 10 NNW 1014,7 10 0,0
21.09.2020 23:00:00 16,2 14,3 15,3 13 7 18 10 N 1015,0 10 0,0
21.09.2020 22:00:00 16,0 13,9 15,1 11 6 14 8 N 1015,1 10 0,0
21.09.2020 21:00:00 16,5 13,8 15,5 11 6 14 8 N 1015,0 10 0,0
21.09.2020 20:00:00 17,6 14,0 16,6 11 6 14 8 NNW 1015,0 21 0,0
21.09.2020 19:00:00 19,2 13,1 18,9 13 7 18 10 NNW 1015,2 10 0,0
21.09.2020 18:00:00 20,4 13,0 21,0 11 6 22 12 NNW 1015,3 28 0,0
21.09.2020 17:00:00 21,7 12,1 23,1 11 6 18 10 N 1015,6 28 0,0
21.09.2020 16:00:00 21,8 12,5 23,8 13 7 22 12 N 1015,8 10 0,0
21.09.2020 15:00:00 21,9 11,6 25,0 9 5 22 12 WSW 1016,1 10 0,0
21.09.2020 14:00:00 21,7 10,2 24,8 9 5 18 10 NNE 1016,4 10 0,0
21.09.2020 13:00:00 20,7 9,6 23,8 9 5 14 8 NNE 1016,7 10 0,0
21.09.2020 12:00:00 19,4 11,2 21,9 11 6 14 8 NNE 1017,0 10 0,0
21.09.2020 11:00:00 17,7 11,9 19,3 9 5 14 8 NNE 1017,4 10 0,0
21.09.2020 10:00:00 15,9 11,4 16,3 8 4 11 6 N 1017,2 10 0,0
21.09.2020 09:00:00 13,9 11,1 13,0 8 4 11 6 N 1017,1 10 0,0
21.09.2020 08:00:00 12,5 10,7 10,9 8 4 11 6 NNE 1016,9 7 0,0
21.09.2020 07:00:00 12,7 10,9 11,1 9 5 14 8 NE 1017,0 10 0,0
21.09.2020 06:00:00 12,9 10,9 11,6 11 6 14 8 N 1017,0 11 0,0
21.09.2020 05:00:00 13,6 11,0 12,0 11 6 18 10 NNE 1016,7 10 0,0
21.09.2020 04:00:00 13,8 11,3 12,7 13 7 18 10 NNE 1017,0 10 0,0
21.09.2020 03:00:00 14,4 10,7 12,8 15 8 18 10 NNE 1017,4 10 0,0
21.09.2020 02:00:00 14,8 10,6 13,2 15 8 22 12 NNE 1017,7 10 0,0
21.09.2020 01:00:00 15,0 10,3 13,4 13 7 22 12 NNE 1017,7 10 0,0
21.09.2020 00:00:00 15,5 10,1 14,1 15 8 22 12 NNE 1017,8 10 0,0
20.09.2020 23:00:00 15,8 9,6 14,5 16 9 22 12 NNE 1018,0 10 0,0
20.09.2020 22:00:00 16,3 9,5 15,1 16 9 25 14 NE 1018,0 10 0,0
20.09.2020 21:00:00 17,6 10,3 16,4 18 10 25 14 NNE 1017,7 10 0,0
20.09.2020 20:00:00 18,6 12,5 17,3 16 9 25 14 NNE 1017,4 10 0,0
20.09.2020 19:00:00 20,2 12,1 19,6 16 9 25 14 N 1017,1 10 0,0
20.09.2020 18:00:00 21,5 10,9 21,6 18 10 29 16 N 1016,8 10 0,0
20.09.2020 17:00:00 22,7 8,1 24,0 21 11 29 16 NNE 1016,7 10 0,0
20.09.2020 16:00:00 22,6 6,1 24,6 16 9 25 14 NNE 1016,7 10 0,0
20.09.2020 15:00:00 22,0 7,3 24,3 18 10 25 14 NE 1017,0 10 0,0
20.09.2020 14:00:00 21,5 7,7 24,0 22 12 29 16 NNE 1017,4 10 0,0
20.09.2020 13:00:00 20,6 7,4 23,0 21 11 29 16 NE 1017,5 10 0,0

tt = temperature
td = dewpoint
tt 5cm = temperature 5cm
ff = wind speed
fx = gusts
dd = wind direction
ppp = reduced air pressure
vv = visibility
rr = precipitation

Next stations